COSMOS 970 DEB, 64982

Orbit data source: Space-Track

COSMOS 970 DEB, 64982 is space debris in LEO originally from a launch on Wed, 21 Dec 1977 UTC launched from the Tyuratam Missile And Space Complex (TTMTR). Debris objects in space refer to the collection of defunct objects orbiting the Earth. Examples of debris include non-operational satellites, rocket bodies, and fragments generated from explosions, collisions, or faulty payload assembly.

Loading next visibility...
Identifier
64982, 1977-121CT
Orbit
LEO
Country
Flag of CISCIS
Related business
Manufacturer
Unknown
Mission
Spacecraft
Bus & Motor
Unknown
Mass
Unknown
Launch date (UTC)
1977-12-21 (48 years ago)
Launch vehicle
Unknown
Launch site
Tyuratam Missile And Space Complex (TTMTR)
Object type
Payload
Rocket body
Debris
Shape & HBR
Unknown shape, 1.1 m
Radar Cross Section
Small (<0.1 m²)

Expand to show TLE details & history
Last TLE update: 2 days ago

TLE from 2 days ago
0 COSMOS 970 DEB
1 64982U 77121CT  26170.28793295  .00000791  00000-0  10149-2 0  9992
2 64982  65.7459 352.6541 0047893 234.3340 302.4024 13.68043748626264
Epoch: 2026-06-19T06:54Z
TLE epoch observation values (Epoch: 2026-06-19T06:54:37.406Z)
Latitude
3.32208°
Longitude
159.98834°
Altitude
989.373 km
Speed
7.367 km/s
True Right ascension
11h 24m 39s
True Declination
3° 18' 10"
Sunlit
Object was in daylight at epoch
Visualization orbit readout
Latitude
Unknown
Longitude
Unknown
Altitude
Unknown
Speed
Unknown
Apparent Right ascension
Unknown
Apparent Declination
Unknown
Sunlit
N/A
Visualization observer readout
Local Sidereal Time
08:32:39
Azimuth
Unknown
Elevation
Unknown
Doppler factor
Unknown
Orbital elements
Apogee altitude
1,040.496 km
Perigee altitude
969.774 km
Semi-major axis
7,383.272 km
Eccentricity
0.00479
Inclination
65.7459°
RAAN
352.6541°
Arg. of periapsis
234.334°
True anomaly
301.93755°
Mean anomaly
302.4024°
Eccentric anomaly
302.17012°
Mean motion
3.42113 °/min
Orbital period
105.23 mins
BSTAR
0.0010149
Loading maneuver chart data...
Computing Atmospheric mass density...
Loading historical data...
Loading historical data...
Loading historical data...
Loading historical data...
Loading historical data...
Loading historical data...
Loading historical data...

Documentation

Showing up to 5 results
|